Time,TemperatureF,DewpointF,PressureIn,WindDirection,WindDirectionDegrees,WindSpeedMPH,WindSpeedGustMPH,Humidity,HourlyPrecipIn,Conditions,Clouds,dailyrainin,SoftwareType,DateUTC
2013-06-19 00:02:00,70.0,56.4,28.82,North,-999,-999.0,-999.0,62,0.00,,,0.00,WSDL version 420,2013-06-19 04:02:00,
2013-06-19 00:04:00,70.0,56.4,28.82,North,-999,-999.0,-999.0,62,0.00,,,0.00,WSDL version 420,2013-06-19 04:04:00,
2013-06-19 00:08:00,70.0,56.4,28.82,East,90,0.0,0.0,62,0.00,,,0.00,WSDL version 420,2013-06-19 04:08:00,
2013-06-19 00:10:00,70.0,56.4,28.82,North,0,0.0,0.0,62,0.00,,,0.00,WSDL version 420,2013-06-19 04:10:00,
2013-06-19 00:12:00,70.0,56.4,28.82,North,-999,-999.0,-999.0,62,0.00,,,0.00,WSDL version 420,2013-06-19 04:12:00,
2013-06-19 00:14:00,70.0,56.5,28.82,East,90,0.0,0.0,63,0.00,,,0.00,WSDL version 420,2013-06-19 04:14:00,
2013-06-19 00:16:00,70.0,56.6,28.82,North,-999,-999.0,-999.0,62,0.00,,,0.00,WSDL version 420,2013-06-19 04:16:00,
2013-06-19 00:22:00,70.0,56.4,28.82,ENE,68,0.0,0.0,62,0.00,,,0.00,WSDL version 420,2013-06-19 04:22:00,
2013-06-19 00:24:00,70.0,56.4,28.82,North,-999,-999.0,-999.0,62,0.00,,,0.00,WSDL version 420,2013-06-19 04:24:00,
2013-06-19 00:26:00,70.0,56.5,28.82,SSE,158,0.0,0.0,62,0.00,,,0.00,WSDL version 420,2013-06-19 04:26:00,
2013-06-19 00:28:00,70.1,56.5,28.82,East,90,0.0,0.0,62,0.00,,,0.00,WSDL version 420,2013-06-19 04:28:00,
2013-06-19 00:30:00,70.2,56.5,28.82,ESE,113,0.0,0.0,62,0.00,,,0.00,WSDL version 420,2013-06-19 04:30:00,
2013-06-19 00:34:00,70.2,56.5,28.82,South,180,0.0,0.0,62,0.00,,,0.00,WSDL version 420,2013-06-19 04:34:00,
2013-06-19 00:36:00,70.2,56.5,28.82,North,0,0.0,0.0,62,0.00,,,0.00,WSDL version 420,2013-06-19 04:36:00,
2013-06-19 00:38:00,70.2,56.6,28.82,North,-999,-999.0,-999.0,62,0.00,,,0.00,WSDL version 420,2013-06-19 04:38:00,
2013-06-19 00:40:00,70.2,56.6,28.82,North,-999,-999.0,-999.0,62,0.00,,,0.00,WSDL version 420,2013-06-19 04:40:00,
2013-06-19 00:44:00,70.2,56.5,28.82,SE,135,0.0,0.0,62,0.00,,,0.00,WSDL version 420,2013-06-19 04:44:00,
2013-06-19 00:46:00,70.2,56.5,28.82,SE,135,0.0,0.0,62,0.00,,,0.00,WSDL version 420,2013-06-19 04:46:00,
2013-06-19 00:50:00,70.3,56.8,28.82,North,-999,-999.0,-999.0,63,0.00,,,0.00,WSDL version 420,2013-06-19 04:50:00,
2013-06-19 00:52:00,70.3,57.0,28.82,North,-999,-999.0,-999.0,62,0.00,,,0.00,WSDL version 420,2013-06-19 04:52:00,
2013-06-19 00:56:00,70.2,56.7,28.82,North,-999,-999.0,-999.0,63,0.00,,,0.00,WSDL version 420,2013-06-19 04:56:00,
2013-06-19 00:58:00,70.2,56.7,28.82,SW,236,0.0,0.0,62,0.00,,,0.00,WSDL version 420,2013-06-19 04:58:00,
2013-06-19 01:00:00,70.2,56.7,28.82,WNW,293,0.0,0.0,62,0.00,,,0.00,WSDL version 420,2013-06-19 05:00:00,
2013-06-19 01:02:00,70.2,56.5,28.82,North,-999,-999.0,-999.0,62,0.00,,,0.00,WSDL version 420,2013-06-19 05:02:00,
2013-06-19 01:04:00,70.2,56.5,28.82,WNW,293,0.0,0.0,62,0.00,,,0.00,WSDL version 420,2013-06-19 05:04:00,
2013-06-19 01:06:00,70.2,56.5,28.82,WNW,293,0.0,0.0,62,0.00,,,0.00,WSDL version 420,2013-06-19 05:06:00,
2013-06-19 01:08:00,70.2,56.5,28.82,North,0,0.0,0.0,62,0.00,,,0.00,WSDL version 420,2013-06-19 05:08:00,
2013-06-19 01:10:00,70.2,56.5,28.82,WNW,293,0.0,0.0,62,0.00,,,0.00,WSDL version 420,2013-06-19 05:10:00,
2013-06-19 01:14:00,70.2,56.5,28.82,North,-999,-999.0,-999.0,62,0.00,,,0.00,WSDL version 420,2013-06-19 05:14:00,
2013-06-19 01:16:00,70.2,56.5,28.82,North,-999,-999.0,-999.0,62,0.00,,,0.00,WSDL version 420,2013-06-19 05:16:00,
2013-06-19 01:18:00,70.2,56.5,28.82,North,-999,-999.0,-999.0,62,0.00,,,0.00,WSDL version 420,2013-06-19 05:18:00,
2013-06-19 01:20:00,70.2,56.5,28.82,North,-999,-999.0,-999.0,62,0.00,,,0.00,WSDL version 420,2013-06-19 05:20:00,
2013-06-19 01:22:00,70.2,56.5,28.82,North,-999,-999.0,-999.0,62,0.00,,,0.00,WSDL version 420,2013-06-19 05:22:00,
2013-06-19 01:24:00,70.2,56.5,28.82,SSE,158,0.0,0.0,62,0.00,,,0.00,WSDL version 420,2013-06-19 05:24:00,
2013-06-19 01:28:00,70.2,56.5,28.82,SSE,158,0.0,0.0,62,0.00,,,0.00,WSDL version 420,2013-06-19 05:28:00,
2013-06-19 01:30:00,70.2,56.5,28.82,SSE,158,0.0,0.0,62,0.00,,,0.00,WSDL version 420,2013-06-19 05:30:00,
2013-06-19 01:34:00,70.2,56.5,28.82,East,90,0.0,0.0,62,0.00,,,0.00,WSDL version 420,2013-06-19 05:34:00,
2013-06-19 01:36:00,70.2,56.6,28.82,North,-999,-999.0,-999.0,63,0.00,,,0.00,WSDL version 420,2013-06-19 05:36:00,
2013-06-19 01:40:00,70.1,56.7,28.82,ENE,68,0.0,0.0,62,0.00,,,0.00,WSDL version 420,2013-06-19 05:40:00,
2013-06-19 01:42:00,70.0,56.4,28.82,ENE,68,0.0,0.0,62,0.00,,,0.00,WSDL version 420,2013-06-19 05:42:00,
2013-06-19 01:48:00,70.0,56.4,28.82,North,360,0.0,0.0,62,0.00,,,0.00,WSDL version 420,2013-06-19 05:48:00,
2013-06-19 01:50:00,70.0,56.4,28.82,North,-999,-999.0,-999.0,62,0.00,,,0.00,WSDL version 420,2013-06-19 05:50:00,
2013-06-19 01:52:00,70.0,56.4,28.82,North,360,0.0,0.0,62,0.00,,,0.00,WSDL version 420,2013-06-19 05:52:00,
2013-06-19 01:54:00,70.0,56.4,28.82,North,360,0.0,0.0,62,0.00,,,0.00,WSDL version 420,2013-06-19 05:54:00,
2013-06-19 01:56:00,70.0,56.4,28.82,North,-999,-999.0,-999.0,62,0.00,,,0.00,WSDL version 420,2013-06-19 05:56:00,
2013-06-19 02:00:00,70.0,56.4,28.82,North,0,0.0,0.0,62,0.00,,,0.00,WSDL version 420,2013-06-19 06:00:00,
2013-06-19 02:02:00,70.0,56.4,28.82,NE,45,0.0,0.0,62,0.00,,,0.00,WSDL version 420,2013-06-19 06:02:00,
2013-06-19 02:04:00,70.0,56.4,28.82,ENE,68,0.0,0.0,62,0.00,,,0.00,WSDL version 420,2013-06-19 06:04:00,
2013-06-19 02:08:00,70.0,56.4,28.82,ENE,68,0.0,0.0,62,0.00,,,0.00,WSDL version 420,2013-06-19 06:08:00,
2013-06-19 02:10:00,70.0,56.4,28.82,East,90,0.0,0.0,62,0.00,,,0.00,WSDL version 420,2013-06-19 06:10:00,
2013-06-19 02:14:00,70.0,56.4,28.82,East,90,0.0,0.0,62,0.00,,,0.00,WSDL version 420,2013-06-19 06:14:00,
2013-06-19 02:16:00,70.0,56.4,28.82,NE,45,0.0,0.0,62,0.00,,,0.00,WSDL version 420,2013-06-19 06:16:00,
2013-06-19 02:18:00,69.9,56.3,28.82,North,0,0.0,0.0,62,0.00,,,0.00,WSDL version 420,2013-06-19 06:18:00,
2013-06-19 02:22:00,69.8,56.2,28.82,North,-999,-999.0,-999.0,62,0.00,,,0.00,WSDL version 420,2013-06-19 06:22:00,
2013-06-19 02:24:00,69.8,56.2,28.82,North,-999,-999.0,-999.0,62,0.00,,,0.00,WSDL version 420,2013-06-19 06:24:00,
2013-06-19 02:26:00,69.8,56.2,28.82,North,360,0.0,0.0,62,0.00,,,0.00,WSDL version 420,2013-06-19 06:26:00,
2013-06-19 02:30:00,69.8,56.2,28.82,NE,45,0.0,0.0,62,0.00,,,0.00,WSDL version 420,2013-06-19 06:30:00,
2013-06-19 02:32:00,69.8,56.2,28.82,North,-999,-999.0,-999.0,62,0.00,,,0.00,WSDL version 420,2013-06-19 06:32:00,
2013-06-19 02:34:00,69.8,56.1,28.82,SE,135,0.0,0.0,62,0.00,,,0.00,WSDL version 420,2013-06-19 06:34:00,
2013-06-19 02:38:00,69.8,56.1,28.82,North,-999,-999.0,-999.0,62,0.00,,,0.00,WSDL version 420,2013-06-19 06:38:00,
2013-06-19 02:40:00,69.8,56.2,28.82,North,-999,-999.0,-999.0,62,0.00,,,0.00,WSDL version 420,2013-06-19 06:40:00,
2013-06-19 02:42:00,69.8,56.2,28.82,SSW,203,0.0,0.9,62,0.00,,,0.00,WSDL version 420,2013-06-19 06:42:00,
2013-06-19 02:46:00,69.8,56.0,28.82,South,180,0.0,0.9,62,0.00,,,0.00,WSDL version 420,2013-06-19 06:46:00,
2013-06-19 02:48:00,69.8,56.0,28.82,North,-999,-999.0,-999.0,62,0.00,,,0.00,WSDL version 420,2013-06-19 06:48:00,
2013-06-19 02:52:00,69.8,56.2,28.82,North,-999,-999.0,-999.0,62,0.00,,,0.00,WSDL version 420,2013-06-19 06:52:00,
2013-06-19 02:56:00,69.8,56.3,28.82,North,-999,-999.0,-999.0,62,0.00,,,0.00,WSDL version 420,2013-06-19 06:56:00,
2013-06-19 02:58:00,69.8,56.4,28.82,North,-999,-999.0,-999.0,62,0.00,,,0.00,WSDL version 420,2013-06-19 06:58:00,
2013-06-19 03:02:00,69.8,56.2,28.82,East,79,0.0,0.0,62,0.00,,,0.00,WSDL version 420,2013-06-19 07:02:00,
2013-06-19 03:04:00,69.8,56.3,28.82,ENE,68,0.0,0.0,63,0.00,,,0.00,WSDL version 420,2013-06-19 07:04:00,
2013-06-19 03:06:00,69.8,56.3,28.82,SSE,158,0.4,0.0,62,0.00,,,0.00,WSDL version 420,2013-06-19 07:06:00,
2013-06-19 03:08:00,69.8,56.3,28.82,East,90,0.0,0.0,62,0.00,,,0.00,WSDL version 420,2013-06-19 07:08:00,
2013-06-19 03:10:00,69.8,56.2,28.82,SSE,158,0.0,0.0,62,0.00,,,0.00,WSDL version 420,2013-06-19 07:10:00,
2013-06-19 03:12:00,69.8,56.5,28.82,SSE,158,0.0,0.0,64,0.00,,,0.00,WSDL version 420,2013-06-19 07:12:00,
2013-06-19 03:14:00,69.8,56.8,28.82,North,-999,-999.0,-999.0,64,0.00,,,0.00,WSDL version 420,2013-06-19 07:14:00,
2013-06-19 03:16:00,69.8,57.0,28.82,SE,135,0.0,0.0,64,0.00,,,0.00,WSDL version 420,2013-06-19 07:16:00,
2013-06-19 03:20:00,69.6,56.9,28.82,NE,45,0.0,0.0,64,0.00,,,0.00,WSDL version 420,2013-06-19 07:20:00,
2013-06-19 03:24:00,69.6,56.9,28.82,North,-999,-999.0,-999.0,64,0.00,,,0.00,WSDL version 420,2013-06-19 07:24:00,
2013-06-19 03:28:00,69.6,56.7,28.82,North,-999,-999.0,-999.0,63,0.00,,,0.00,WSDL version 420,2013-06-19 07:28:00,
2013-06-19 03:30:00,69.6,56.6,28.82,North,-999,-999.0,-999.0,63,0.00,,,0.00,WSDL version 420,2013-06-19 07:30:00,
2013-06-19 03:32:00,69.6,56.5,28.82,North,-999,-999.0,-999.0,63,0.00,,,0.00,WSDL version 420,2013-06-19 07:32:00,
2013-06-19 03:34:00,69.6,56.5,28.82,NE,45,0.0,0.0,64,0.00,,,0.00,WSDL version 420,2013-06-19 07:34:00,
2013-06-19 03:36:00,69.6,56.8,28.82,NE,45,0.0,0.0,65,0.00,,,0.00,WSDL version 420,2013-06-19 07:36:00,
2013-06-19 03:38:00,69.6,57.1,28.82,South,180,0.9,0.0,65,0.00,,,0.00,WSDL version 420,2013-06-19 07:38:00,
2013-06-19 03:40:00,69.5,57.2,28.82,North,0,0.0,0.0,65,0.00,,,0.00,WSDL version 420,2013-06-19 07:40:00,
2013-06-19 03:42:00,69.4,57.0,28.82,NE,45,0.0,0.0,64,0.00,,,0.00,WSDL version 420,2013-06-19 07:42:00,
2013-06-19 03:44:00,69.4,57.0,28.82,North,-999,-999.0,-999.0,65,0.00,,,0.00,WSDL version 420,2013-06-19 07:44:00,
2013-06-19 03:48:00,69.4,57.2,28.82,SSE,158,0.0,1.3,65,0.00,,,0.00,WSDL version 420,2013-06-19 07:48:00,
2013-06-19 03:50:00,69.4,57.2,28.82,ESE,113,0.0,1.3,65,0.00,,,0.00,WSDL version 420,2013-06-19 07:50:00,
2013-06-19 03:54:00,69.4,57.2,28.82,ENE,75,0.0,1.3,65,0.00,,,0.00,WSDL version 420,2013-06-19 07:54:00,
2013-06-19 03:56:00,69.4,57.2,28.82,SE,135,0.0,1.3,65,0.00,,,0.00,WSDL version 420,2013-06-19 07:56:00,
2013-06-19 04:00:00,69.4,57.1,28.82,ESE,113,0.0,0.0,65,0.00,,,0.00,WSDL version 420,2013-06-19 08:00:00,
2013-06-19 04:02:00,69.4,57.1,28.82,NE,45,0.0,0.0,64,0.00,,,0.00,WSDL version 420,2013-06-19 08:02:00,
2013-06-19 04:04:00,69.4,56.9,28.82,NE,45,0.0,0.0,64,0.00,,,0.00,WSDL version 420,2013-06-19 08:04:00,
2013-06-19 04:06:00,69.4,56.7,28.82,NE,45,0.0,0.0,64,0.00,,,0.00,WSDL version 420,2013-06-19 08:06:00,
2013-06-19 04:08:00,69.4,56.7,28.82,North,0,0.0,0.0,64,0.00,,,0.00,WSDL version 420,2013-06-19 08:08:00,
2013-06-19 04:12:00,69.4,56.7,28.82,NE,45,0.0,0.0,64,0.00,,,0.00,WSDL version 420,2013-06-19 08:12:00,
2013-06-19 04:14:00,69.4,56.7,28.82,North,-999,-999.0,-999.0,64,0.00,,,0.00,WSDL version 420,2013-06-19 08:14:00,
2013-06-19 04:16:00,69.4,56.6,28.82,North,-999,-999.0,-999.0,63,0.00,,,0.00,WSDL version 420,2013-06-19 08:16:00,
2013-06-19 04:18:00,69.4,56.4,28.82,North,-999,-999.0,-999.0,63,0.00,,,0.00,WSDL version 420,2013-06-19 08:18:00,
2013-06-19 04:22:00,69.4,56.5,28.82,NE,45,0.0,0.0,64,0.00,,,0.00,WSDL version 420,2013-06-19 08:22:00,
2013-06-19 04:24:00,69.4,56.7,28.82,SSE,158,0.0,0.0,64,0.00,,,0.00,WSDL version 420,2013-06-19 08:24:00,
2013-06-19 04:26:00,69.4,56.9,28.82,North,-999,-999.0,-999.0,65,0.00,,,0.00,WSDL version 420,2013-06-19 08:26:00,
2013-06-19 04:30:00,69.4,57.3,28.82,North,-999,-999.0,-999.0,66,0.00,,,0.00,WSDL version 420,2013-06-19 08:30:00,
2013-06-19 04:34:00,69.4,57.6,28.82,North,-999,-999.0,-999.0,66,0.00,,,0.00,WSDL version 420,2013-06-19 08:34:00,
2013-06-19 04:36:00,69.4,57.6,28.82,SSE,158,0.0,0.0,66,0.00,,,0.00,WSDL version 420,2013-06-19 08:36:00,
2013-06-19 04:40:00,69.4,57.7,28.82,North,-999,-999.0,-999.0,67,0.00,,,0.00,WSDL version 420,2013-06-19 08:40:00,
2013-06-19 04:42:00,69.4,57.9,28.82,North,-999,-999.0,-999.0,67,0.00,,,0.00,WSDL version 420,2013-06-19 08:42:00,
2013-06-19 04:46:00,69.4,58.0,28.82,North,-999,-999.0,-999.0,67,0.00,,,0.00,WSDL version 420,2013-06-19 08:46:00,
2013-06-19 04:48:00,69.3,57.9,28.82,North,-999,-999.0,-999.0,67,0.00,,,0.00,WSDL version 420,2013-06-19 08:48:00,
2013-06-19 04:50:00,69.3,57.8,28.82,North,-999,-999.0,-999.0,67,0.00,,,0.00,WSDL version 420,2013-06-19 08:50:00,
2013-06-19 04:52:00,69.3,57.8,28.82,South,180,1.1,2.5,67,0.00,,,0.00,WSDL version 420,2013-06-19 08:52:00,
2013-06-19 04:56:00,69.3,57.8,28.82,North,-999,-999.0,-999.0,67,0.00,,,0.00,WSDL version 420,2013-06-19 08:56:00,
2013-06-19 04:58:00,69.2,57.8,28.82,North,-999,-999.0,-999.0,67,0.00,,,0.00,WSDL version 420,2013-06-19 08:58:00,
2013-06-19 05:00:00,69.1,57.7,28.82,North,-999,-999.0,-999.0,67,0.00,,,0.00,WSDL version 420,2013-06-19 09:00:00,
2013-06-19 05:06:00,68.9,57.5,28.82,North,-999,-999.0,-999.0,67,0.00,,,0.00,WSDL version 420,2013-06-19 09:06:00,
2013-06-19 05:08:00,68.9,57.5,28.82,North,-999,-999.0,-999.0,67,0.00,,,0.00,WSDL version 420,2013-06-19 09:08:00,
2013-06-19 05:12:00,68.8,57.4,28.82,North,-999,-999.0,-999.0,67,0.00,,,0.00,WSDL version 420,2013-06-19 09:12:00,
2013-06-19 05:14:00,68.8,57.4,28.82,North,-999,-999.0,-999.0,67,0.00,,,0.00,WSDL version 420,2013-06-19 09:14:00,
2013-06-19 05:16:00,68.7,57.3,28.82,North,-999,-999.0,-999.0,67,0.00,,,0.00,WSDL version 420,2013-06-19 09:16:00,
2013-06-19 05:18:00,68.7,57.3,28.82,North,-999,-999.0,-999.0,67,0.00,,,0.00,WSDL version 420,2013-06-19 09:18:00,
2013-06-19 05:20:00,68.7,57.3,28.82,South,180,0.0,1.6,67,0.00,,,0.00,WSDL version 420,2013-06-19 09:20:00,
2013-06-19 05:22:00,68.7,57.5,28.82,North,-999,-999.0,-999.0,68,0.00,,,0.00,WSDL version 420,2013-06-19 09:22:00,
2013-06-19 05:28:00,68.6,57.3,28.82,South,180,0.0,1.6,67,0.00,,,0.00,WSDL version 420,2013-06-19 09:28:00,
2013-06-19 05:30:00,68.5,57.2,28.82,North,-999,-999.0,-999.0,67,0.00,,,0.00,WSDL version 420,2013-06-19 09:30:00,
2013-06-19 05:34:00,68.5,57.2,28.82,North,-999,-999.0,-999.0,67,0.00,,,0.00,WSDL version 420,2013-06-19 09:34:00,
2013-06-19 05:36:00,68.5,57.2,28.82,North,-999,-999.0,-999.0,67,0.00,,,0.00,WSDL version 420,2013-06-19 09:36:00,
2013-06-19 05:40:00,68.5,57.0,28.82,North,-999,-999.0,-999.0,66,0.00,,,0.00,WSDL version 420,2013-06-19 09:40:00,
2013-06-19 05:42:00,68.5,56.7,28.82,North,-999,-999.0,-999.0,66,0.00,,,0.00,WSDL version 420,2013-06-19 09:42:00,
2013-06-19 05:44:00,68.5,56.8,28.82,North,-999,-999.0,-999.0,66,0.00,,,0.00,WSDL version 420,2013-06-19 09:44:00,
2013-06-19 05:48:00,68.5,56.7,28.82,North,-999,-999.0,-999.0,66,0.00,,,0.00,WSDL version 420,2013-06-19 09:48:00,
2013-06-19 05:50:00,68.6,56.9,28.82,North,-999,-999.0,-999.0,67,0.00,,,0.00,WSDL version 420,2013-06-19 09:50:00,
2013-06-19 05:52:00,68.7,57.1,28.82,North,-999,-999.0,-999.0,67,0.00,,,0.00,WSDL version 420,2013-06-19 09:52:00,
2013-06-19 05:58:00,68.7,57.6,28.82,South,180,0.0,0.0,67,0.00,,,0.00,WSDL version 420,2013-06-19 09:58:00,
2013-06-19 06:00:00,68.7,57.5,28.82,North,-999,-999.0,-999.0,67,0.00,,,0.00,WSDL version 420,2013-06-19 10:00:00,
2013-06-19 06:02:00,68.7,57.3,28.82,South,180,0.0,0.0,67,0.00,,,0.00,WSDL version 420,2013-06-19 10:02:00,
2013-06-19 06:04:00,68.7,57.3,28.82,South,180,0.0,0.0,67,0.00,,,0.00,WSDL version 420,2013-06-19 10:04:00,
2013-06-19 06:08:00,68.7,57.3,28.82,South,180,0.0,0.0,67,0.00,,,0.00,WSDL version 420,2013-06-19 10:08:00,
2013-06-19 06:10:00,68.7,57.2,28.82,South,180,0.0,0.0,66,0.00,,,0.00,WSDL version 420,2013-06-19 10:10:00,
2013-06-19 06:12:00,68.7,57.0,28.82,North,-999,-999.0,-999.0,66,0.00,,,0.00,WSDL version 420,2013-06-19 10:12:00,
2013-06-19 06:16:00,68.8,57.2,28.82,South,180,0.0,0.0,67,0.00,,,0.00,WSDL version 420,2013-06-19 10:16:00,
2013-06-19 06:18:00,68.9,57.4,28.82,North,-999,-999.0,-999.0,67,0.00,,,0.00,WSDL version 420,2013-06-19 10:18:00,
2013-06-19 06:20:00,68.9,57.3,28.82,North,-999,-999.0,-999.0,66,0.00,,,0.00,WSDL version 420,2013-06-19 10:20:00,
2013-06-19 06:24:00,68.9,57.1,28.85,South,180,0.0,0.0,66,0.00,,,0.00,WSDL version 420,2013-06-19 10:24:00,
2013-06-19 06:26:00,68.9,57.1,28.85,North,-999,-999.0,-999.0,66,0.00,,,0.00,WSDL version 420,2013-06-19 10:26:00,
2013-06-19 06:30:00,68.9,57.2,28.85,North,-999,-999.0,-999.0,67,0.00,,,0.00,WSDL version 420,2013-06-19 10:30:00,
2013-06-19 06:32:00,68.9,57.3,28.85,South,180,0.0,0.0,67,0.00,,,0.00,WSDL version 420,2013-06-19 10:32:00,
2013-06-19 06:38:00,68.9,57.1,28.85,North,-999,-999.0,-999.0,66,0.00,,,0.00,WSDL version 420,2013-06-19 10:38:00,
2013-06-19 06:40:00,68.9,57.1,28.85,North,-999,-999.0,-999.0,66,0.00,,,0.00,WSDL version 420,2013-06-19 10:40:00,
2013-06-19 06:42:00,68.9,57.1,28.85,South,180,0.0,0.0,66,0.00,,,0.00,WSDL version 420,2013-06-19 10:42:00,
2013-06-19 06:44:00,68.9,57.1,28.85,South,180,0.0,0.0,66,0.00,,,0.00,WSDL version 420,2013-06-19 10:44:00,
2013-06-19 06:48:00,69.0,57.4,28.85,North,-999,-999.0,-999.0,67,0.00,,,0.00,WSDL version 420,2013-06-19 10:48:00,
2013-06-19 06:50:00,69.1,57.7,28.85,North,-999,-999.0,-999.0,67,0.00,,,0.00,WSDL version 420,2013-06-19 10:50:00,
2013-06-19 06:52:00,69.1,57.7,28.85,North,-999,-999.0,-999.0,68,0.00,,,0.00,WSDL version 420,2013-06-19 10:52:00,
2013-06-19 06:54:00,69.1,57.9,28.85,North,-999,-999.0,-999.0,68,0.00,,,0.00,WSDL version 420,2013-06-19 10:54:00,
2013-06-19 06:56:00,69.1,58.1,28.85,North,-999,-999.0,-999.0,68,0.00,,,0.00,WSDL version 420,2013-06-19 10:56:00,
2013-06-19 06:58:00,69.1,58.1,28.85,North,-999,-999.0,-999.0,68,0.00,,,0.00,WSDL version 420,2013-06-19 10:58:00,
2013-06-19 07:00:00,69.1,58.1,28.85,North,-999,-999.0,-999.0,68,0.00,,,0.00,WSDL version 420,2013-06-19 11:00:00,
2013-06-19 07:04:00,69.1,58.1,28.85,South,180,0.0,0.0,68,0.00,,,0.00,WSDL version 420,2013-06-19 11:04:00,
2013-06-19 07:06:00,69.1,58.1,28.85,North,-999,-999.0,-999.0,68,0.00,,,0.00,WSDL version 420,2013-06-19 11:06:00,
2013-06-19 07:08:00,69.1,58.1,28.85,North,-999,-999.0,-999.0,68,0.00,,,0.00,WSDL version 420,2013-06-19 11:08:00,
2013-06-19 07:12:00,69.2,58.2,28.85,North,-999,-999.0,-999.0,68,0.00,,,0.00,WSDL version 420,2013-06-19 11:12:00,
2013-06-19 07:14:00,69.2,58.2,28.85,North,-999,-999.0,-999.0,68,0.00,,,0.00,WSDL version 420,2013-06-19 11:14:00,
2013-06-19 07:16:00,69.3,58.1,28.85,South,180,0.0,0.0,67,0.00,,,0.00,WSDL version 420,2013-06-19 11:16:00,
2013-06-19 07:22:00,69.3,58.0,28.85,North,-999,-999.0,-999.0,67,0.00,,,0.00,WSDL version 420,2013-06-19 11:22:00,
2013-06-19 07:24:00,69.3,57.9,28.85,North,-999,-999.0,-999.0,67,0.00,,,0.00,WSDL version 420,2013-06-19 11:24:00,
2013-06-19 07:26:00,69.3,57.9,28.85,North,-999,-999.0,-999.0,67,0.00,,,0.00,WSDL version 420,2013-06-19 11:26:00,
2013-06-19 07:30:00,69.3,57.9,28.85,North,-999,-999.0,-999.0,67,0.00,,,0.00,WSDL version 420,2013-06-19 11:30:00,
2013-06-19 07:32:00,69.3,57.9,28.85,North,-999,-999.0,-999.0,67,0.00,,,0.00,WSDL version 420,2013-06-19 11:32:00,
2013-06-19 07:34:00,69.3,57.9,28.85,South,180,0.0,0.0,67,0.00,,,0.00,WSDL version 420,2013-06-19 11:34:00,
2013-06-19 07:36:00,69.4,57.9,28.85,North,-999,-999.0,-999.0,67,0.00,,,0.00,WSDL version 420,2013-06-19 11:36:00,
2013-06-19 07:40:00,69.4,58.0,28.85,North,0,0.0,0.0,67,0.00,,,0.00,WSDL version 420,2013-06-19 11:40:00,
2013-06-19 07:42:00,69.4,58.0,28.85,North,-999,-999.0,-999.0,67,0.00,,,0.00,WSDL version 420,2013-06-19 11:42:00,
2013-06-19 07:46:00,69.4,58.1,28.85,South,180,0.0,0.0,68,0.00,,,0.00,WSDL version 420,2013-06-19 11:46:00,
2013-06-19 07:48:00,69.4,58.2,28.85,South,180,0.0,0.0,68,0.00,,,0.00,WSDL version 420,2013-06-19 11:48:00,
2013-06-19 07:50:00,69.5,58.5,28.85,North,0,0.0,0.0,68,0.00,,,0.00,WSDL version 420,2013-06-19 11:50:00,
2013-06-19 07:54:00,69.6,58.6,28.88,North,-999,-999.0,-999.0,68,0.00,,,0.00,WSDL version 420,2013-06-19 11:54:00,
2013-06-19 07:56:00,69.6,58.6,28.88,North,-999,-999.0,-999.0,68,0.00,,,0.00,WSDL version 420,2013-06-19 11:56:00,
2013-06-19 07:58:00,69.6,58.6,28.88,North,-999,-999.0,-999.0,68,0.00,,,0.00,WSDL version 420,2013-06-19 11:58:00,
2013-06-19 08:02:00,69.8,58.7,28.88,North,0,0.0,0.0,68,0.00,,,0.00,WSDL version 420,2013-06-19 12:02:00,
2013-06-19 08:04:00,69.9,58.8,28.88,South,180,0.0,0.0,68,0.00,,,0.00,WSDL version 420,2013-06-19 12:04:00,
2013-06-19 08:06:00,69.9,58.9,28.88,South,180,0.0,0.0,68,0.00,,,0.00,WSDL version 420,2013-06-19 12:06:00,
2013-06-19 08:08:00,70.1,59.0,28.88,North,-999,-999.0,-999.0,68,0.00,,,0.00,WSDL version 420,2013-06-19 12:08:00,
2013-06-19 08:10:00,70.1,59.1,28.88,South,180,0.0,0.0,68,0.00,,,0.00,WSDL version 420,2013-06-19 12:10:00,
2013-06-19 08:12:00,70.2,59.2,28.88,North,-999,-999.0,-999.0,68,0.00,,,0.00,WSDL version 420,2013-06-19 12:12:00,
2013-06-19 08:16:00,70.4,59.4,28.88,North,-999,-999.0,-999.0,68,0.00,,,0.00,WSDL version 420,2013-06-19 12:16:00,
2013-06-19 08:18:00,70.5,59.5,28.88,South,180,0.0,0.0,68,0.00,,,0.00,WSDL version 420,2013-06-19 12:18:00,
2013-06-19 08:20:00,70.6,59.6,28.88,North,-999,-999.0,-999.0,68,0.00,,,0.00,WSDL version 420,2013-06-19 12:20:00,
2013-06-19 08:22:00,70.8,59.7,28.88,North,-999,-999.0,-999.0,68,0.00,,,0.00,WSDL version 420,2013-06-19 12:22:00,
2013-06-19 08:24:00,70.8,59.7,28.88,North,-999,-999.0,-999.0,68,0.00,,,0.00,WSDL version 420,2013-06-19 12:24:00,
2013-06-19 08:26:00,70.9,59.7,28.88,South,180,0.0,0.0,67,0.00,,,0.00,WSDL version 420,2013-06-19 12:26:00,
2013-06-19 08:28:00,71.1,59.7,28.88,North,-999,-999.0,-999.0,68,0.00,,,0.00,WSDL version 420,2013-06-19 12:28:00,
2013-06-19 08:30:00,71.2,60.0,28.88,South,180,0.0,0.0,68,0.00,,,0.00,WSDL version 420,2013-06-19 12:30:00,
2013-06-19 08:34:00,71.5,60.1,28.88,South,180,0.0,0.0,67,0.00,,,0.00,WSDL version 420,2013-06-19 12:34:00,
2013-06-19 08:36:00,71.6,60.0,28.88,North,-999,-999.0,-999.0,67,0.00,,,0.00,WSDL version 420,2013-06-19 12:36:00,
2013-06-19 08:38:00,71.7,60.1,28.88,North,-999,-999.0,-999.0,67,0.00,,,0.00,WSDL version 420,2013-06-19 12:38:00,
2013-06-19 08:42:00,71.8,59.9,28.88,North,-999,-999.0,-999.0,66,0.00,,,0.00,WSDL version 420,2013-06-19 12:42:00,
2013-06-19 08:44:00,71.9,59.9,28.88,North,-999,-999.0,-999.0,66,0.00,,,0.00,WSDL version 420,2013-06-19 12:44:00,
2013-06-19 08:46:00,72.0,60.0,28.88,North,-999,-999.0,-999.0,66,0.00,,,0.00,WSDL version 420,2013-06-19 12:46:00,
2013-06-19 08:50:00,72.1,60.2,28.88,South,180,0.0,0.0,66,0.00,,,0.00,WSDL version 420,2013-06-19 12:50:00,
2013-06-19 08:54:00,72.4,60.2,28.88,North,-999,-999.0,-999.0,65,0.00,,,0.00,WSDL version 420,2013-06-19 12:54:00,
2013-06-19 08:56:00,72.5,60.2,28.88,North,-999,-999.0,-999.0,65,0.00,,,0.00,WSDL version 420,2013-06-19 12:56:00,
2013-06-19 08:58:00,72.6,60.2,28.88,North,-999,-999.0,-999.0,65,0.00,,,0.00,WSDL version 420,2013-06-19 12:58:00,
2013-06-19 09:00:00,72.8,60.2,28.88,North,-999,-999.0,-999.0,64,0.00,,,0.00,WSDL version 420,2013-06-19 13:00:00,
2013-06-19 09:04:00,73.0,60.2,28.88,South,180,0.0,0.0,64,0.00,,,0.00,WSDL version 420,2013-06-19 13:04:00,
2013-06-19 09:06:00,73.2,60.2,28.88,ESE,113,0.0,0.0,63,0.00,,,0.00,WSDL version 420,2013-06-19 13:06:00,
2013-06-19 09:12:00,73.6,60.0,28.88,North,-999,-999.0,-999.0,62,0.00,,,0.00,WSDL version 420,2013-06-19 13:12:00,
2013-06-19 09:14:00,73.7,59.6,28.88,South,169,0.0,2.9,60,0.00,,,0.00,WSDL version 420,2013-06-19 13:14:00,
2013-06-19 09:16:00,73.6,59.2,28.88,NW,315,0.0,2.9,60,0.00,,,0.00,WSDL version 420,2013-06-19 13:16:00,
2013-06-19 09:20:00,73.8,58.6,28.88,North,-999,-999.0,-999.0,59,0.00,,,0.00,WSDL version 420,2013-06-19 13:20:00,
2013-06-19 09:22:00,73.8,58.5,28.88,North,-999,-999.0,-999.0,59,0.00,,,0.00,WSDL version 420,2013-06-19 13:22:00,
2013-06-19 09:26:00,74.0,58.3,28.88,North,-999,-999.0,-999.0,58,0.00,,,0.00,WSDL version 420,2013-06-19 13:26:00,
2013-06-19 09:28:00,74.0,58.3,28.88,North,-999,-999.0,-999.0,58,0.00,,,0.00,WSDL version 420,2013-06-19 13:28:00,
2013-06-19 09:30:00,74.2,58.4,28.88,NE,45,0.0,0.0,58,0.00,,,0.00,WSDL version 420,2013-06-19 13:30:00,
2013-06-19 09:32:00,74.2,58.5,28.88,ESE,113,0.0,0.0,58,0.00,,,0.00,WSDL version 420,2013-06-19 13:32:00,
2013-06-19 09:36:00,74.4,58.4,28.91,North,0,0.0,1.3,57,0.00,,,0.00,WSDL version 420,2013-06-19 13:36:00,
2013-06-19 09:38:00,74.5,58.0,28.91,WNW,293,1.3,1.3,56,0.00,,,0.00,WSDL version 420,2013-06-19 13:38:00,
2013-06-19 09:44:00,74.6,56.6,28.91,NW,315,2.5,2.5,52,0.00,,,0.00,WSDL version 420,2013-06-19 13:44:00,
2013-06-19 09:48:00,74.5,55.5,28.91,North,349,0.4,1.6,51,0.00,,,0.00,WSDL version 420,2013-06-19 13:48:00,
2013-06-19 09:52:00,74.6,55.0,28.91,North,-999,-999.0,-999.0,50,0.00,,,0.00,WSDL version 420,2013-06-19 13:52:00,
2013-06-19 09:56:00,74.6,54.8,28.91,North,-999,-999.0,-999.0,50,0.00,,,0.00,WSDL version 420,2013-06-19 13:56:00,
2013-06-19 09:58:00,74.6,54.7,28.91,North,-999,-999.0,-999.0,50,0.00,,,0.00,WSDL version 420,2013-06-19 13:58:00,
2013-06-19 10:00:00,74.5,54.8,28.91,North,360,0.0,0.0,51,0.00,,,0.00,WSDL version 420,2013-06-19 14:00:00,
2013-06-19 10:02:00,74.6,54.8,28.91,North,0,0.0,0.0,50,0.00,,,0.00,WSDL version 420,2013-06-19 14:02:00,
2013-06-19 10:06:00,74.7,54.7,28.91,North,-999,-999.0,-999.0,49,0.00,,,0.00,WSDL version 420,2013-06-19 14:06:00,
2013-06-19 10:08:00,74.8,54.8,28.91,North,-999,-999.0,-999.0,50,0.00,,,0.00,WSDL version 420,2013-06-19 14:08:00,
2013-06-19 10:10:00,74.8,54.9,28.91,North,-999,-999.0,-999.0,50,0.00,,,0.00,WSDL version 420,2013-06-19 14:10:00,
2013-06-19 10:12:00,75.0,55.1,28.91,ESE,113,0.0,0.0,50,0.00,,,0.00,WSDL version 420,2013-06-19 14:12:00,
2013-06-19 10:14:00,75.2,55.3,28.91,North,-999,-999.0,-999.0,50,0.00,,,0.00,WSDL version 420,2013-06-19 14:14:00,
2013-06-19 10:20:00,75.4,54.7,28.91,SE,135,1.1,1.6,48,0.00,,,0.00,WSDL version 420,2013-06-19 14:20:00,
2013-06-19 10:22:00,75.5,54.5,28.91,WSW,248,0.0,1.6,49,0.00,,,0.00,WSDL version 420,2013-06-19 14:22:00,
2013-06-19 10:26:00,75.8,54.8,28.91,WNW,293,0.0,1.6,48,0.00,,,0.00,WSDL version 420,2013-06-19 14:26:00,
2013-06-19 10:28:00,75.8,54.7,28.91,SSE,158,0.0,0.0,47,0.00,,,0.00,WSDL version 420,2013-06-19 14:28:00,
2013-06-19 10:30:00,76.0,54.8,28.91,North,-999,-999.0,-999.0,48,0.00,,,0.00,WSDL version 420,2013-06-19 14:30:00,
2013-06-19 10:34:00,76.1,54.5,28.91,North,0,0.0,2.7,47,0.00,,,0.00,WSDL version 420,2013-06-19 14:34:00,
2013-06-19 10:38:00,76.1,54.2,28.91,North,-999,-999.0,-999.0,47,0.00,,,0.00,WSDL version 420,2013-06-19 14:38:00,
2013-06-19 10:40:00,76.2,54.3,28.91,North,-999,-999.0,-999.0,47,0.00,,,0.00,WSDL version 420,2013-06-19 14:40:00,
2013-06-19 10:44:00,76.3,54.6,28.91,NW,315,0.0,0.0,47,0.00,,,0.00,WSDL version 420,2013-06-19 14:44:00,
2013-06-19 10:46:00,76.4,54.7,28.91,North,-999,-999.0,-999.0,47,0.00,,,0.00,WSDL version 420,2013-06-19 14:46:00,
2013-06-19 10:48:00,76.4,54.9,28.91,North,-999,-999.0,-999.0,48,0.00,,,0.00,WSDL version 420,2013-06-19 14:48:00,
2013-06-19 10:50:00,76.5,55.1,28.91,North,-999,-999.0,-999.0,48,0.00,,,0.00,WSDL version 420,2013-06-19 14:50:00,
2013-06-19 10:52:00,76.5,55.3,28.91,North,-999,-999.0,-999.0,48,0.00,,,0.00,WSDL version 420,2013-06-19 14:52:00,
2013-06-19 10:56:00,76.4,54.6,28.91,North,0,0.0,3.1,47,0.00,,,0.00,WSDL version 420,2013-06-19 14:56:00,
2013-06-19 10:58:00,76.3,54.5,28.91,North,-999,-999.0,-999.0,47,0.00,,,0.00,WSDL version 420,2013-06-19 14:58:00,
2013-06-19 11:00:00,76.4,54.7,28.91,North,-999,-999.0,-999.0,47,0.00,,,0.00,WSDL version 420,2013-06-19 15:00:00,
2013-06-19 11:04:00,76.7,55.0,28.91,NNE,23,0.0,0.0,47,0.00,,,0.00,WSDL version 420,2013-06-19 15:04:00,
2013-06-19 11:06:00,76.8,55.1,28.91,North,0,0.0,0.0,47,0.00,,,0.00,WSDL version 420,2013-06-19 15:06:00,
2013-06-19 11:10:00,77.1,55.0,28.91,North,-999,-999.0,-999.0,47,0.00,,,0.00,WSDL version 420,2013-06-19 15:10:00,
2013-06-19 11:12:00,77.3,55.1,28.91,North,-999,-999.0,-999.0,46,0.00,,,0.00,WSDL version 420,2013-06-19 15:12:00,
2013-06-19 11:16:00,77.7,55.3,28.91,North,-999,-999.0,-999.0,46,0.00,,,0.00,WSDL version 420,2013-06-19 15:16:00,
2013-06-19 11:18:00,77.7,55.1,28.91,North,-999,-999.0,-999.0,45,0.00,,,0.00,WSDL version 420,2013-06-19 15:18:00,
2013-06-19 11:20:00,77.6,54.8,28.91,NW,315,1.1,0.0,45,0.00,,,0.00,WSDL version 420,2013-06-19 15:20:00,
2013-06-19 11:22:00,77.6,54.6,28.91,NW,315,0.0,0.0,45,0.00,,,0.00,WSDL version 420,2013-06-19 15:22:00,
2013-06-19 11:24:00,77.8,54.8,28.91,North,-999,-999.0,-999.0,45,0.00,,,0.00,WSDL version 420,2013-06-19 15:24:00,
2013-06-19 11:26:00,78.0,55.1,28.91,North,-999,-999.0,-999.0,45,0.00,,,0.00,WSDL version 420,2013-06-19 15:26:00,
2013-06-19 11:28:00,78.1,55.1,28.91,North,360,0.0,2.5,45,0.00,,,0.00,WSDL version 420,2013-06-19 15:28:00,
2013-06-19 11:30:00,78.1,55.0,28.91,NNW,338,1.3,3.4,45,0.00,,,0.00,WSDL version 420,2013-06-19 15:30:00,
2013-06-19 11:34:00,78.1,54.9,28.91,North,-999,-999.0,-999.0,45,0.00,,,0.00,WSDL version 420,2013-06-19 15:34:00,
2013-06-19 11:36:00,78.1,54.9,28.91,NW,315,1.1,3.4,45,0.00,,,0.00,WSDL version 420,2013-06-19 15:36:00,
2013-06-19 11:38:00,78.2,55.1,28.91,North,-999,-999.0,-999.0,45,0.00,,,0.00,WSDL version 420,2013-06-19 15:38:00,
2013-06-19 11:40:00,78.2,54.9,28.91,North,-999,-999.0,-999.0,44,0.00,,,0.00,WSDL version 420,2013-06-19 15:40:00,
2013-06-19 11:44:00,78.4,54.7,28.91,North,-999,-999.0,-999.0,44,0.00,,,0.00,WSDL version 420,2013-06-19 15:44:00,
2013-06-19 11:46:00,78.4,54.7,28.91,North,-999,-999.0,-999.0,44,0.00,,,0.00,WSDL version 420,2013-06-19 15:46:00,
2013-06-19 11:50:00,78.4,54.7,28.91,SE,135,1.3,2.5,44,0.00,,,0.00,WSDL version 420,2013-06-19 15:50:00,
2013-06-19 11:52:00,78.5,54.8,28.94,North,-999,-999.0,-999.0,44,0.00,,,0.00,WSDL version 420,2013-06-19 15:52:00,
2013-06-19 11:54:00,78.6,55.2,28.94,North,-999,-999.0,-999.0,45,0.00,,,0.00,WSDL version 420,2013-06-19 15:54:00,
2013-06-19 11:58:00,78.9,55.3,28.94,North,-999,-999.0,-999.0,43,0.00,,,0.00,WSDL version 420,2013-06-19 15:58:00,
2013-06-19 12:00:00,79.1,55.0,28.94,North,-999,-999.0,-999.0,44,0.00,,,0.00,WSDL version 420,2013-06-19 16:00:00,
2013-06-19 12:02:00,79.4,55.3,28.94,South,180,0.6,0.0,44,0.00,,,0.00,WSDL version 420,2013-06-19 16:02:00,
2013-06-19 12:06:00,79.8,55.7,28.94,North,-999,-999.0,-999.0,44,0.00,,,0.00,WSDL version 420,2013-06-19 16:06:00,
2013-06-19 12:08:00,79.6,55.7,28.94,NW,315,0.0,0.0,44,0.00,,,0.00,WSDL version 420,2013-06-19 16:08:00,
2013-06-19 12:14:00,79.2,54.9,28.94,North,360,0.0,0.0,43,0.00,,,0.00,WSDL version 420,2013-06-19 16:14:00,
2013-06-19 12:18:00,78.9,54.5,28.94,North,-999,-999.0,-999.0,43,0.00,,,0.00,WSDL version 420,2013-06-19 16:18:00,
2013-06-19 12:20:00,78.8,54.4,28.94,SE,135,0.0,0.0,43,0.00,,,0.00,WSDL version 420,2013-06-19 16:20:00,
2013-06-19 12:24:00,79.1,54.6,28.94,SE,135,0.0,0.0,43,0.00,,,0.00,WSDL version 420,2013-06-19 16:24:00,
2013-06-19 12:26:00,79.3,55.0,28.94,SE,135,0.0,1.1,44,0.00,,,0.00,WSDL version 420,2013-06-19 16:26:00,
2013-06-19 12:30:00,79.4,55.1,28.94,North,-999,-999.0,-999.0,43,0.00,,,0.00,WSDL version 420,2013-06-19 16:30:00,
2013-06-19 12:32:00,79.5,55.0,28.94,North,-999,-999.0,-999.0,43,0.00,,,0.00,WSDL version 420,2013-06-19 16:32:00,
2013-06-19 12:34:00,79.6,55.1,28.94,North,360,0.0,1.1,43,0.00,,,0.00,WSDL version 420,2013-06-19 16:34:00,
2013-06-19 12:36:00,79.7,55.2,28.94,North,360,0.0,0.0,43,0.00,,,0.00,WSDL version 420,2013-06-19 16:36:00,
2013-06-19 12:40:00,79.8,55.2,28.94,NNW,338,0.0,0.0,43,0.00,,,0.00,WSDL version 420,2013-06-19 16:40:00,
2013-06-19 12:42:00,79.9,55.2,28.94,North,-999,-999.0,-999.0,43,0.00,,,0.00,WSDL version 420,2013-06-19 16:42:00,
2013-06-19 12:48:00,80.1,55.6,28.94,North,360,0.0,0.9,43,0.00,,,0.00,WSDL version 420,2013-06-19 16:48:00,
2013-06-19 12:50:00,79.9,55.3,28.94,North,-999,-999.0,-999.0,42,0.00,,,0.00,WSDL version 420,2013-06-19 16:50:00,
2013-06-19 12:56:00,79.9,54.8,28.94,NE,56,0.6,3.1,42,0.00,,,0.00,WSDL version 420,2013-06-19 16:56:00,
2013-06-19 13:02:00,80.2,55.1,28.94,North,-999,-999.0,-999.0,42,0.00,,,0.00,WSDL version 420,2013-06-19 17:02:00,
2013-06-19 13:04:00,80.3,55.0,28.94,North,-999,-999.0,-999.0,41,0.00,,,0.00,WSDL version 420,2013-06-19 17:04:00,
2013-06-19 13:06:00,80.4,55.0,28.94,NW,315,0.0,0.0,42,0.00,,,0.00,WSDL version 420,2013-06-19 17:06:00,
2013-06-19 13:08:00,80.4,55.0,28.94,North,-999,-999.0,-999.0,42,0.00,,,0.00,WSDL version 420,2013-06-19 17:08:00,
2013-06-19 13:10:00,80.4,55.2,28.94,SSE,158,0.0,0.0,42,0.00,,,0.00,WSDL version 420,2013-06-19 17:10:00,
2013-06-19 13:14:00,80.4,55.1,28.94,North,-999,-999.0,-999.0,41,0.00,,,0.00,WSDL version 420,2013-06-19 17:14:00,
2013-06-19 13:16:00,80.3,54.7,28.94,North,-999,-999.0,-999.0,41,0.00,,,0.00,WSDL version 420,2013-06-19 17:16:00,
2013-06-19 13:20:00,79.9,53.6,28.94,North,-999,-999.0,-999.0,40,0.00,,,0.00,WSDL version 420,2013-06-19 17:20:00,
2013-06-19 13:24:00,79.9,53.6,28.94,North,-999,-999.0,-999.0,41,0.00,,,0.00,WSDL version 420,2013-06-19 17:24:00,
2013-06-19 13:26:00,80.0,53.9,28.94,North,360,0.0,2.0,41,0.00,,,0.00,WSDL version 420,2013-06-19 17:26:00,
2013-06-19 13:28:00,80.1,54.2,28.94,North,-999,-999.0,-999.0,41,0.00,,,0.00,WSDL version 420,2013-06-19 17:28:00,
2013-06-19 13:30:00,80.1,54.3,28.94,North,-999,-999.0,-999.0,41,0.00,,,0.00,WSDL version 420,2013-06-19 17:30:00,
2013-06-19 13:32:00,80.1,54.3,28.94,North,-999,-999.0,-999.0,41,0.00,,,0.00,WSDL version 420,2013-06-19 17:32:00,
2013-06-19 13:36:00,80.1,54.5,28.94,NNE,23,0.0,0.0,42,0.00,,,0.00,WSDL version 420,2013-06-19 17:36:00,
2013-06-19 13:38:00,80.2,54.8,28.94,North,-999,-999.0,-999.0,42,0.00,,,0.00,WSDL version 420,2013-06-19 17:38:00,
2013-06-19 13:40:00,80.2,55.1,28.94,SSE,158,0.0,0.0,42,0.00,,,0.00,WSDL version 420,2013-06-19 17:40:00,
2013-06-19 13:44:00,80.3,54.9,28.94,North,-999,-999.0,-999.0,42,0.00,,,0.00,WSDL version 420,2013-06-19 17:44:00,
2013-06-19 13:50:00,80.6,54.4,28.94,SSE,158,0.0,2.9,40,0.00,,,0.00,WSDL version 420,2013-06-19 17:50:00,
2013-06-19 13:52:00,80.7,54.5,28.94,North,-999,-999.0,-999.0,41,0.00,,,0.00,WSDL version 420,2013-06-19 17:52:00,
2013-06-19 13:58:00,80.8,54.9,28.94,NNE,23,0.0,2.9,41,0.00,,,0.00,WSDL version 420,2013-06-19 17:58:00,
2013-06-19 14:00:00,80.7,54.8,28.94,North,-999,-999.0,-999.0,41,0.00,,,0.00,WSDL version 420,2013-06-19 18:00:00,
2013-06-19 14:02:00,80.6,54.8,28.94,North,-999,-999.0,-999.0,41,0.00,,,0.00,WSDL version 420,2013-06-19 18:02:00,
2013-06-19 14:04:00,80.6,54.8,28.94,SE,135,0.0,0.0,41,0.00,,,0.00,WSDL version 420,2013-06-19 18:04:00,
2013-06-19 14:06:00,80.7,54.9,28.94,North,-999,-999.0,-999.0,42,0.00,,,0.00,WSDL version 420,2013-06-19 18:06:00,
2013-06-19 14:08:00,80.8,55.2,28.94,North,-999,-999.0,-999.0,41,0.00,,,0.00,WSDL version 420,2013-06-19 18:08:00,
2013-06-19 14:10:00,80.8,55.2,28.94,North,-999,-999.0,-999.0,41,0.00,,,0.00,WSDL version 420,2013-06-19 18:10:00,
2013-06-19 14:14:00,80.8,54.9,28.94,North,-999,-999.0,-999.0,41,0.00,,,0.00,WSDL version 420,2013-06-19 18:14:00,
2013-06-19 14:16:00,80.7,54.8,28.94,North,360,0.0,1.6,41,0.00,,,0.00,WSDL version 420,2013-06-19 18:16:00,
2013-06-19 14:18:00,80.5,54.7,28.94,North,-999,-999.0,-999.0,41,0.00,,,0.00,WSDL version 420,2013-06-19 18:18:00,
2013-06-19 14:22:00,80.4,54.6,28.94,North,0,0.0,1.6,41,0.00,,,0.00,WSDL version 420,2013-06-19 18:22:00,
2013-06-19 14:26:00,80.4,54.7,28.94,WSW,248,0.0,0.0,41,0.00,,,0.00,WSDL version 420,2013-06-19 18:26:00,
2013-06-19 14:32:00,79.9,54.0,28.94,North,-999,-999.0,-999.0,41,0.00,,,0.00,WSDL version 420,2013-06-19 18:32:00,
2013-06-19 14:36:00,79.9,54.1,28.94,SW,225,0.4,2.5,41,0.00,,,0.00,WSDL version 420,2013-06-19 18:36:00,
2013-06-19 14:38:00,79.9,54.1,28.94,North,-999,-999.0,-999.0,41,0.00,,,0.00,WSDL version 420,2013-06-19 18:38:00,
2013-06-19 14:42:00,79.7,53.9,28.94,North,-999,-999.0,-999.0,41,0.00,,,0.00,WSDL version 420,2013-06-19 18:42:00,
2013-06-19 14:44:00,79.6,53.8,28.94,North,360,0.0,1.3,41,0.00,,,0.00,WSDL version 420,2013-06-19 18:44:00,
2013-06-19 14:48:00,79.5,54.1,28.94,ENE,68,0.0,0.0,42,0.00,,,0.00,WSDL version 420,2013-06-19 18:48:00,
2013-06-19 14:50:00,79.5,54.3,28.94,North,360,0.0,0.0,42,0.00,,,0.00,WSDL version 420,2013-06-19 18:50:00,
2013-06-19 14:52:00,79.5,54.4,28.94,North,360,0.0,0.0,42,0.00,,,0.00,WSDL version 420,2013-06-19 18:52:00,
2013-06-19 14:56:00,79.1,54.1,28.94,North,0,0.0,0.0,42,0.00,,,0.00,WSDL version 420,2013-06-19 18:56:00,
2013-06-19 14:58:00,79.0,54.0,28.94,NNW,338,0.0,0.0,42,0.00,,,0.00,WSDL version 420,2013-06-19 18:58:00,
2013-06-19 15:00:00,79.0,54.1,28.94,North,0,0.0,0.0,43,0.00,,,0.00,WSDL version 420,2013-06-19 19:00:00,
2013-06-19 15:02:00,79.0,54.3,28.94,North,-999,-999.0,-999.0,43,0.00,,,0.00,WSDL version 420,2013-06-19 19:02:00,
2013-06-19 15:06:00,78.8,54.5,28.94,North,-999,-999.0,-999.0,43,0.00,,,0.00,WSDL version 420,2013-06-19 19:06:00,
2013-06-19 15:08:00,78.7,54.6,28.94,NNW,338,0.0,0.0,44,0.00,,,0.00,WSDL version 420,2013-06-19 19:08:00,
2013-06-19 15:10:00,78.7,54.8,28.94,North,-999,-999.0,-999.0,44,0.00,,,0.00,WSDL version 420,2013-06-19 19:10:00,
2013-06-19 15:16:00,78.6,55.0,28.94,SSE,158,0.0,0.0,45,0.00,,,0.00,WSDL version 420,2013-06-19 19:16:00,
2013-06-19 15:18:00,78.6,55.3,28.94,North,0,0.0,0.0,45,0.00,,,0.00,WSDL version 420,2013-06-19 19:18:00,
2013-06-19 15:20:00,78.6,55.5,28.94,NNE,23,0.0,0.0,45,0.00,,,0.00,WSDL version 420,2013-06-19 19:20:00,
2013-06-19 15:22:00,78.6,55.7,28.94,North,0,0.0,0.0,46,0.00,,,0.00,WSDL version 420,2013-06-19 19:22:00,
2013-06-19 15:24:00,78.6,56.0,28.94,North,-999,-999.0,-999.0,46,0.00,,,0.00,WSDL version 420,2013-06-19 19:24:00,
2013-06-19 15:26:00,78.6,56.1,28.94,North,-999,-999.0,-999.0,46,0.00,,,0.00,WSDL version 420,2013-06-19 19:26:00,
2013-06-19 15:30:00,78.4,55.7,28.94,North,-999,-999.0,-999.0,45,0.00,,,0.00,WSDL version 420,2013-06-19 19:30:00,
2013-06-19 15:32:00,78.4,55.4,28.94,North,-999,-999.0,-999.0,45,0.00,,,0.00,WSDL version 420,2013-06-19 19:32:00,
2013-06-19 15:36:00,78.3,55.4,28.94,North,-999,-999.0,-999.0,46,0.00,,,0.00,WSDL version 420,2013-06-19 19:36:00,
2013-06-19 15:38:00,78.4,55.6,28.94,North,-999,-999.0,-999.0,46,0.00,,,0.00,WSDL version 420,2013-06-19 19:38:00,
2013-06-19 15:40:00,78.4,56.0,28.94,NNW,338,0.0,0.0,46,0.00,,,0.00,WSDL version 420,2013-06-19 19:40:00,
2013-06-19 15:42:00,78.4,56.1,28.94,North,-999,-999.0,-999.0,46,0.00,,,0.00,WSDL version 420,2013-06-19 19:42:00,
2013-06-19 15:44:00,78.4,56.2,28.94,North,-999,-999.0,-999.0,47,0.00,,,0.00,WSDL version 420,2013-06-19 19:44:00,
2013-06-19 15:46:00,78.4,56.1,28.94,North,-999,-999.0,-999.0,46,0.00,,,0.00,WSDL version 420,2013-06-19 19:46:00,
2013-06-19 15:50:00,78.2,55.8,28.94,North,-999,-999.0,-999.0,46,0.00,,,0.00,WSDL version 420,2013-06-19 19:50:00,
2013-06-19 15:52:00,78.2,55.9,28.94,NNW,338,0.0,0.0,47,0.00,,,0.00,WSDL version 420,2013-06-19 19:52:00,
2013-06-19 15:54:00,78.2,56.2,28.94,North,-999,-999.0,-999.0,47,0.00,,,0.00,WSDL version 420,2013-06-19 19:54:00,
2013-06-19 15:56:00,78.3,56.4,28.94,North,-999,-999.0,-999.0,47,0.00,,,0.00,WSDL version 420,2013-06-19 19:56:00,
2013-06-19 15:58:00,78.2,56.4,28.94,North,-999,-999.0,-999.0,47,0.00,,,0.00,WSDL version 420,2013-06-19 19:58:00,
2013-06-19 16:00:00,78.2,56.3,28.94,North,-999,-999.0,-999.0,47,0.00,,,0.00,WSDL version 420,2013-06-19 20:00:00,
2013-06-19 16:02:00,78.1,56.2,28.94,NNW,338,0.0,0.0,47,0.00,,,0.00,WSDL version 420,2013-06-19 20:02:00,
2013-06-19 16:04:00,78.1,56.5,28.94,NNW,338,0.0,0.0,48,0.00,,,0.00,WSDL version 420,2013-06-19 20:04:00,
2013-06-19 16:06:00,78.1,56.8,28.94,North,-999,-999.0,-999.0,48,0.00,,,0.00,WSDL version 420,2013-06-19 20:06:00,
2013-06-19 16:10:00,78.3,57.1,28.94,North,-999,-999.0,-999.0,48,0.00,,,0.00,WSDL version 420,2013-06-19 20:10:00,
2013-06-19 16:12:00,78.3,57.1,28.94,NNE,23,0.0,0.0,49,0.00,,,0.00,WSDL version 420,2013-06-19 20:12:00,
2013-06-19 16:16:00,78.3,57.2,28.94,ESE,113,0.0,0.0,48,0.00,,,0.00,WSDL version 420,2013-06-19 20:16:00,
2013-06-19 16:18:00,78.3,57.0,28.94,North,-999,-999.0,-999.0,48,0.00,,,0.00,WSDL version 420,2013-06-19 20:18:00,
2013-06-19 16:22:00,78.3,57.2,28.94,South,180,0.0,0.0,49,0.00,,,0.00,WSDL version 420,2013-06-19 20:22:00,
2013-06-19 16:24:00,78.3,57.1,28.94,North,-999,-999.0,-999.0,47,0.00,,,0.00,WSDL version 420,2013-06-19 20:24:00,
2013-06-19 16:26:00,78.3,56.9,28.94,North,-999,-999.0,-999.0,47,0.00,,,0.00,WSDL version 420,2013-06-19 20:26:00,
2013-06-19 16:28:00,78.2,56.5,28.94,North,-999,-999.0,-999.0,47,0.00,,,0.00,WSDL version 420,2013-06-19 20:28:00,
2013-06-19 16:30:00,78.2,56.4,28.94,North,-999,-999.0,-999.0,47,0.00,,,0.00,WSDL version 420,2013-06-19 20:30:00,
2013-06-19 16:32:00,78.2,56.6,28.94,North,-999,-999.0,-999.0,48,0.00,,,0.00,WSDL version 420,2013-06-19 20:32:00,
2013-06-19 16:36:00,78.3,56.9,28.94,North,-999,-999.0,-999.0,47,0.00,,,0.00,WSDL version 420,2013-06-19 20:36:00,
2013-06-19 16:38:00,78.3,56.9,28.94,North,-999,-999.0,-999.0,48,0.00,,,0.00,WSDL version 420,2013-06-19 20:38:00,
2013-06-19 16:40:00,78.3,56.9,28.94,North,-999,-999.0,-999.0,48,0.00,,,0.00,WSDL version 420,2013-06-19 20:40:00,
2013-06-19 16:44:00,78.3,57.5,28.94,South,180,0.0,0.0,49,0.00,,,0.00,WSDL version 420,2013-06-19 20:44:00,
2013-06-19 16:46:00,78.3,57.6,28.94,North,-999,-999.0,-999.0,49,0.00,,,0.00,WSDL version 420,2013-06-19 20:46:00,
2013-06-19 16:48:00,78.3,57.6,28.94,South,180,0.0,0.0,49,0.00,,,0.00,WSDL version 420,2013-06-19 20:48:00,
2013-06-19 16:50:00,78.2,57.5,28.94,North,-999,-999.0,-999.0,49,0.00,,,0.00,WSDL version 420,2013-06-19 20:50:00,
2013-06-19 16:52:00,78.1,57.4,28.94,North,360,0.0,0.0,49,0.00,,,0.00,WSDL version 420,2013-06-19 20:52:00,
2013-06-19 16:56:00,78.1,57.4,28.94,North,360,0.0,0.0,49,0.00,,,0.00,WSDL version 420,2013-06-19 20:56:00,
2013-06-19 17:00:00,78.1,57.9,28.94,ENE,68,0.0,0.0,50,0.00,,,0.00,WSDL version 420,2013-06-19 21:00:00,
2013-06-19 17:02:00,78.1,57.8,28.94,North,-999,-999.0,-999.0,50,0.00,,,0.00,WSDL version 420,2013-06-19 21:02:00,
2013-06-19 17:06:00,78.1,57.5,28.94,North,-999,-999.0,-999.0,48,0.00,,,0.00,WSDL version 420,2013-06-19 21:06:00,
2013-06-19 17:08:00,78.1,57.4,28.94,North,-999,-999.0,-999.0,49,0.00,,,0.00,WSDL version 420,2013-06-19 21:08:00,
2013-06-19 17:12:00,78.2,57.9,28.94,WSW,248,0.0,0.0,50,0.00,,,0.00,WSDL version 420,2013-06-19 21:12:00,
2013-06-19 17:14:00,78.2,58.0,28.94,North,-999,-999.0,-999.0,49,0.00,,,0.00,WSDL version 420,2013-06-19 21:14:00,
2013-06-19 17:18:00,78.3,57.4,28.94,North,-999,-999.0,-999.0,48,0.00,,,0.00,WSDL version 420,2013-06-19 21:18:00,
2013-06-19 17:20:00,78.2,57.0,28.94,West,270,0.0,0.0,48,0.00,,,0.00,WSDL version 420,2013-06-19 21:20:00,
2013-06-19 17:22:00,78.1,56.5,28.94,North,-999,-999.0,-999.0,47,0.00,,,0.00,WSDL version 420,2013-06-19 21:22:00,
2013-06-19 17:24:00,78.1,56.3,28.94,North,-999,-999.0,-999.0,47,0.00,,,0.00,WSDL version 420,2013-06-19 21:24:00,
2013-06-19 17:26:00,78.1,56.1,28.94,North,-999,-999.0,-999.0,46,0.00,,,0.00,WSDL version 420,2013-06-19 21:26:00,
2013-06-19 17:28:00,78.0,56.1,28.94,North,-999,-999.0,-999.0,47,0.00,,,0.00,WSDL version 420,2013-06-19 21:28:00,
2013-06-19 17:30:00,78.0,56.0,28.94,North,-999,-999.0,-999.0,47,0.00,,,0.00,WSDL version 420,2013-06-19 21:30:00,
2013-06-19 17:36:00,77.8,55.7,28.94,North,-999,-999.0,-999.0,47,0.00,,,0.00,WSDL version 420,2013-06-19 21:36:00,
2013-06-19 17:38:00,77.8,55.6,28.94,SW,225,0.0,0.0,47,0.00,,,0.00,WSDL version 420,2013-06-19 21:38:00,
2013-06-19 17:40:00,77.7,55.8,28.94,North,-999,-999.0,-999.0,46,0.00,,,0.00,WSDL version 420,2013-06-19 21:40:00,
2013-06-19 17:42:00,77.7,55.6,28.94,North,-999,-999.0,-999.0,46,0.00,,,0.00,WSDL version 420,2013-06-19 21:42:00,
2013-06-19 17:44:00,77.7,55.4,28.94,North,-999,-999.0,-999.0,46,0.00,,,0.00,WSDL version 420,2013-06-19 21:44:00,
2013-06-19 17:46:00,77.8,55.5,28.94,SE,135,0.0,0.0,46,0.00,,,0.00,WSDL version 420,2013-06-19 21:46:00,
2013-06-19 17:48:00,77.9,55.6,28.94,SE,135,0.0,0.0,47,0.00,,,0.00,WSDL version 420,2013-06-19 21:48:00,
2013-06-19 17:50:00,77.9,55.9,28.94,North,-999,-999.0,-999.0,47,0.00,,,0.00,WSDL version 420,2013-06-19 21:50:00,
2013-06-19 17:52:00,77.9,56.1,28.94,North,-999,-999.0,-999.0,47,0.00,,,0.00,WSDL version 420,2013-06-19 21:52:00,
2013-06-19 17:56:00,77.9,56.1,28.94,East,90,0.0,0.0,47,0.00,,,0.00,WSDL version 420,2013-06-19 21:56:00,
2013-06-19 17:58:00,77.9,56.1,28.94,East,90,0.0,0.0,47,0.00,,,0.00,WSDL version 420,2013-06-19 21:58:00,
2013-06-19 18:00:00,77.9,56.1,28.94,East,90,0.0,0.0,47,0.00,,,0.00,WSDL version 420,2013-06-19 22:00:00,
2013-06-19 18:04:00,77.8,56.0,28.94,North,-999,-999.0,-999.0,47,0.00,,,0.00,WSDL version 420,2013-06-19 22:04:00,
2013-06-19 18:08:00,77.7,55.5,28.94,North,-999,-999.0,-999.0,46,0.00,,,0.00,WSDL version 420,2013-06-19 22:08:00,
2013-06-19 18:10:00,77.7,55.3,28.94,SE,146,0.0,1.6,46,0.00,,,0.00,WSDL version 420,2013-06-19 22:10:00,
2013-06-19 18:14:00,77.7,54.9,28.94,North,-999,-999.0,-999.0,45,0.00,,,0.00,WSDL version 420,2013-06-19 22:14:00,
2013-06-19 18:16:00,77.7,54.7,28.94,SSE,158,0.0,1.6,45,0.00,,,0.00,WSDL version 420,2013-06-19 22:16:00,
2013-06-19 18:20:00,77.7,55.2,28.94,ESE,113,0.9,0.0,46,0.00,,,0.00,WSDL version 420,2013-06-19 22:20:00,
2013-06-19 18:22:00,77.7,55.3,28.94,ESE,113,0.0,0.0,46,0.00,,,0.00,WSDL version 420,2013-06-19 22:22:00,
2013-06-19 18:24:00,77.7,55.3,28.94,North,-999,-999.0,-999.0,46,0.00,,,0.00,WSDL version 420,2013-06-19 22:24:00,
2013-06-19 18:26:00,77.6,55.3,28.94,North,-999,-999.0,-999.0,46,0.00,,,0.00,WSDL version 420,2013-06-19 22:26:00,
2013-06-19 18:30:00,77.6,55.3,28.94,North,-999,-999.0,-999.0,47,0.00,,,0.00,WSDL version 420,2013-06-19 22:30:00,
2013-06-19 18:34:00,77.7,55.9,28.94,North,-999,-999.0,-999.0,47,0.00,,,0.00,WSDL version 420,2013-06-19 22:34:00,
2013-06-19 18:36:00,77.7,55.8,28.94,SE,135,0.0,0.0,46,0.00,,,0.00,WSDL version 420,2013-06-19 22:36:00,
2013-06-19 18:38:00,77.7,55.6,28.94,North,-999,-999.0,-999.0,46,0.00,,,0.00,WSDL version 420,2013-06-19 22:38:00,
2013-06-19 18:40:00,77.7,55.5,28.94,North,-999,-999.0,-999.0,47,0.00,,,0.00,WSDL version 420,2013-06-19 22:40:00,
2013-06-19 18:42:00,77.7,55.8,28.94,SE,135,0.0,0.0,47,0.00,,,0.00,WSDL version 420,2013-06-19 22:42:00,
2013-06-19 18:44:00,77.7,55.9,28.94,North,0,0.0,0.0,47,0.00,,,0.00,WSDL version 420,2013-06-19 22:44:00,
2013-06-19 18:46:00,77.6,55.8,28.94,North,-999,-999.0,-999.0,47,0.00,,,0.00,WSDL version 420,2013-06-19 22:46:00,
2013-06-19 18:48:00,77.5,55.6,28.94,North,-999,-999.0,-999.0,47,0.00,,,0.00,WSDL version 420,2013-06-19 22:48:00,
2013-06-19 18:50:00,77.5,55.6,28.94,North,-999,-999.0,-999.0,47,0.00,,,0.00,WSDL version 420,2013-06-19 22:50:00,
2013-06-19 18:56:00,77.4,55.6,28.94,North,0,0.0,0.0,47,0.00,,,0.00,WSDL version 420,2013-06-19 22:56:00,
2013-06-19 19:00:00,77.4,55.9,28.94,North,-999,-999.0,-999.0,47,0.00,,,0.00,WSDL version 420,2013-06-19 23:00:00,
2013-06-19 19:02:00,77.4,56.0,28.94,SE,135,0.0,0.0,47,0.00,,,0.00,WSDL version 420,2013-06-19 23:02:00,
2013-06-19 19:06:00,77.3,56.0,28.94,SE,135,0.0,0.0,48,0.00,,,0.00,WSDL version 420,2013-06-19 23:06:00,
2013-06-19 19:08:00,77.2,56.0,28.94,North,-999,-999.0,-999.0,48,0.00,,,0.00,WSDL version 420,2013-06-19 23:08:00,
2013-06-19 19:10:00,77.2,56.1,28.94,North,-999,-999.0,-999.0,49,0.00,,,0.00,WSDL version 420,2013-06-19 23:10:00,
2013-06-19 19:14:00,77.1,56.5,28.94,North,-999,-999.0,-999.0,49,0.00,,,0.00,WSDL version 420,2013-06-19 23:14:00,
2013-06-19 19:16:00,77.0,56.4,28.94,SE,135,0.0,0.0,49,0.00,,,0.00,WSDL version 420,2013-06-19 23:16:00,
2013-06-19 19:18:00,77.0,56.4,28.94,SE,135,0.0,0.0,49,0.00,,,0.00,WSDL version 420,2013-06-19 23:18:00,
2013-06-19 19:20:00,76.9,56.3,28.94,North,-999,-999.0,-999.0,49,0.00,,,0.00,WSDL version 420,2013-06-19 23:20:00,
2013-06-19 19:24:00,76.8,56.1,28.97,SE,135,0.0,0.0,49,0.00,,,0.00,WSDL version 420,2013-06-19 23:24:00,
2013-06-19 19:26:00,76.7,56.2,28.97,SE,135,0.0,0.0,50,0.00,,,0.00,WSDL version 420,2013-06-19 23:26:00,
2013-06-19 19:28:00,76.7,56.4,28.97,North,-999,-999.0,-999.0,50,0.00,,,0.00,WSDL version 420,2013-06-19 23:28:00,
2013-06-19 19:30:00,76.6,56.7,28.97,North,-999,-999.0,-999.0,51,0.00,,,0.00,WSDL version 420,2013-06-19 23:30:00,
2013-06-19 19:32:00,76.4,56.8,28.97,SE,135,0.0,0.0,51,0.00,,,0.00,WSDL version 420,2013-06-19 23:32:00,
2013-06-19 19:34:00,76.3,56.9,28.97,North,-999,-999.0,-999.0,51,0.00,,,0.00,WSDL version 420,2013-06-19 23:34:00,
2013-06-19 19:36:00,76.2,57.0,28.94,SE,135,0.0,0.0,52,0.00,,,0.00,WSDL version 420,2013-06-19 23:36:00,
2013-06-19 19:38:00,76.1,57.2,28.94,North,-999,-999.0,-999.0,53,0.00,,,0.00,WSDL version 420,2013-06-19 23:38:00,
2013-06-19 19:44:00,75.5,57.5,28.94,ENE,68,0.0,0.0,55,0.00,,,0.00,WSDL version 420,2013-06-19 23:44:00,
2013-06-19 19:46:00,75.3,57.7,28.94,ENE,68,0.0,0.0,56,0.00,,,0.00,WSDL version 420,2013-06-19 23:46:00,
2013-06-19 19:48:00,75.1,58.0,28.94,ENE,68,0.0,0.0,56,0.00,,,0.00,WSDL version 420,2013-06-19 23:48:00,
2013-06-19 19:54:00,74.9,58.5,28.94,ENE,68,0.0,0.0,57,0.00,,,0.00,WSDL version 420,2013-06-19 23:54:00,
2013-06-19 20:00:00,74.5,58.4,28.94,North,-999,-999.0,-999.0,58,0.00,,,0.00,WSDL version 420,2013-06-20 00:00:00,
2013-06-19 20:02:00,74.4,58.4,28.94,ENE,68,0.0,0.0,58,0.00,,,0.00,WSDL version 420,2013-06-20 00:02:00,
2013-06-19 20:04:00,74.2,58.5,28.94,ENE,68,0.0,0.0,58,0.00,,,0.00,WSDL version 420,2013-06-20 00:04:00,
2013-06-19 20:08:00,74.0,58.7,28.94,ENE,68,0.0,0.0,59,0.00,,,0.00,WSDL version 420,2013-06-20 00:08:00,
2013-06-19 20:10:00,73.9,58.7,28.94,North,-999,-999.0,-999.0,59,0.00,,,0.00,WSDL version 420,2013-06-20 00:10:00,
2013-06-19 20:14:00,73.7,58.5,28.94,ENE,68,0.0,0.0,59,0.00,,,0.00,WSDL version 420,2013-06-20 00:14:00,
2013-06-19 20:16:00,73.6,58.5,28.94,North,0,0.0,0.0,60,0.00,,,0.00,WSDL version 420,2013-06-20 00:16:00,
2013-06-19 20:20:00,73.4,58.4,28.94,ENE,68,0.0,0.0,60,0.00,,,0.00,WSDL version 420,2013-06-20 00:20:00,
2013-06-19 20:24:00,73.1,58.4,28.94,North,-999,-999.0,-999.0,60,0.00,,,0.00,WSDL version 420,2013-06-20 00:24:00,
2013-06-19 20:26:00,72.9,58.2,28.94,North,-999,-999.0,-999.0,60,0.00,,,0.00,WSDL version 420,2013-06-20 00:26:00,
2013-06-19 20:30:00,72.7,58.4,28.94,ENE,68,0.0,0.0,61,0.00,,,0.00,WSDL version 420,2013-06-20 00:30:00,
2013-06-19 20:34:00,72.5,58.3,28.94,North,-999,-999.0,-999.0,61,0.00,,,0.00,WSDL version 420,2013-06-20 00:34:00,
2013-06-19 20:36:00,72.4,58.2,28.94,North,-999,-999.0,-999.0,61,0.00,,,0.00,WSDL version 420,2013-06-20 00:36:00,
2013-06-19 20:38:00,72.4,58.3,28.94,SE,135,0.0,0.0,62,0.00,,,0.00,WSDL version 420,2013-06-20 00:38:00,
2013-06-19 20:40:00,72.3,58.4,28.94,SE,135,0.0,0.0,62,0.00,,,0.00,WSDL version 420,2013-06-20 00:40:00,
2013-06-19 20:42:00,72.3,58.6,28.94,SE,135,0.0,0.0,62,0.00,,,0.00,WSDL version 420,2013-06-20 00:42:00,
2013-06-19 20:44:00,72.3,58.6,28.94,North,-999,-999.0,-999.0,62,0.00,,,0.00,WSDL version 420,2013-06-20 00:44:00,
2013-06-19 20:48:00,72.1,58.8,28.94,SE,135,0.0,0.0,63,0.00,,,0.00,WSDL version 420,2013-06-20 00:48:00,
2013-06-19 20:50:00,72.1,58.8,28.94,SE,135,0.0,0.0,63,0.00,,,0.00,WSDL version 420,2013-06-20 00:50:00,
2013-06-19 20:52:00,72.0,58.7,28.94,North,-999,-999.0,-999.0,63,0.00,,,0.00,WSDL version 420,2013-06-20 00:52:00,
2013-06-19 20:56:00,71.9,58.6,28.94,North,-999,-999.0,-999.0,63,0.00,,,0.00,WSDL version 420,2013-06-20 00:56:00,
2013-06-19 21:00:00,71.7,58.5,28.94,SE,135,0.0,0.0,63,0.00,,,0.00,WSDL version 420,2013-06-20 01:00:00,
2013-06-19 21:02:00,71.7,58.4,28.94,North,-999,-999.0,-999.0,63,0.00,,,0.00,WSDL version 420,2013-06-20 01:02:00,
2013-06-19 21:06:00,71.6,58.4,28.97,SE,135,0.0,0.0,64,0.00,,,0.00,WSDL version 420,2013-06-20 01:06:00,
2013-06-19 21:08:00,71.5,58.5,28.97,SE,135,0.0,0.0,64,0.00,,,0.00,WSDL version 420,2013-06-20 01:08:00,
2013-06-19 21:12:00,71.3,58.5,28.97,SE,135,0.0,0.0,64,0.00,,,0.00,WSDL version 420,2013-06-20 01:12:00,
2013-06-19 21:14:00,71.2,58.5,28.97,North,-999,-999.0,-999.0,64,0.00,,,0.00,WSDL version 420,2013-06-20 01:14:00,
2013-06-19 21:18:00,71.2,58.8,28.97,North,-999,-999.0,-999.0,65,0.00,,,0.00,WSDL version 420,2013-06-20 01:18:00,
2013-06-19 21:20:00,71.1,58.7,28.97,South,180,0.0,0.0,65,0.00,,,0.00,WSDL version 420,2013-06-20 01:20:00,
2013-06-19 21:22:00,71.1,58.7,28.97,South,180,0.0,0.0,65,0.00,,,0.00,WSDL version 420,2013-06-20 01:22:00,
2013-06-19 21:26:00,71.0,58.6,28.97,North,-999,-999.0,-999.0,65,0.00,,,0.00,WSDL version 420,2013-06-20 01:26:00,
2013-06-19 21:30:00,70.8,58.5,28.97,North,-999,-999.0,-999.0,65,0.00,,,0.00,WSDL version 420,2013-06-20 01:30:00,
2013-06-19 21:32:00,70.8,58.5,28.97,South,180,0.0,0.0,66,0.00,,,0.00,WSDL version 420,2013-06-20 01:32:00,
2013-06-19 21:34:00,70.7,58.5,28.97,South,180,0.0,0.0,65,0.00,,,0.00,WSDL version 420,2013-06-20 01:34:00,
2013-06-19 21:36:00,70.6,58.6,28.97,North,0,0.0,0.0,66,0.00,,,0.00,WSDL version 420,2013-06-20 01:36:00,
2013-06-19 21:40:00,70.4,58.5,28.97,North,0,0.0,0.0,66,0.00,,,0.00,WSDL version 420,2013-06-20 01:40:00,
2013-06-19 21:44:00,70.3,58.5,28.97,North,-999,-999.0,-999.0,66,0.00,,,0.00,WSDL version 420,2013-06-20 01:44:00,
2013-06-19 21:46:00,70.3,58.4,28.97,North,-999,-999.0,-999.0,66,0.00,,,0.00,WSDL version 420,2013-06-20 01:46:00,
2013-06-19 21:50:00,70.1,58.1,28.97,North,0,0.0,0.0,66,0.00,,,0.00,WSDL version 420,2013-06-20 01:50:00,
2013-06-19 21:52:00,69.9,58.0,28.97,South,180,0.0,0.0,66,0.00,,,0.00,WSDL version 420,2013-06-20 01:52:00,
2013-06-19 21:56:00,69.7,58.0,28.97,North,-999,-999.0,-999.0,66,0.00,,,0.00,WSDL version 420,2013-06-20 01:56:00,
2013-06-19 22:00:00,69.6,58.0,28.97,South,180,0.0,0.0,67,0.00,,,0.00,WSDL version 420,2013-06-20 02:00:00,
2013-06-19 22:02:00,69.5,58.1,28.97,South,180,0.0,0.0,67,0.00,,,0.00,WSDL version 420,2013-06-20 02:02:00,
2013-06-19 22:06:00,69.4,58.0,28.97,South,180,0.0,0.0,67,0.00,,,0.00,WSDL version 420,2013-06-20 02:06:00,
2013-06-19 22:08:00,69.4,58.1,28.97,North,-999,-999.0,-999.0,68,0.00,,,0.00,WSDL version 420,2013-06-20 02:08:00,
2013-06-19 22:12:00,69.4,58.3,28.97,South,180,0.0,0.0,68,0.00,,,0.00,WSDL version 420,2013-06-20 02:12:00,
2013-06-19 22:14:00,69.4,58.3,28.97,North,0,0.0,0.0,68,0.00,,,0.00,WSDL version 420,2013-06-20 02:14:00,
2013-06-19 22:16:00,69.4,58.4,28.97,North,-999,-999.0,-999.0,68,0.00,,,0.00,WSDL version 420,2013-06-20 02:16:00,
2013-06-19 22:20:00,69.4,58.4,28.97,North,-999,-999.0,-999.0,68,0.00,,,0.00,WSDL version 420,2013-06-20 02:20:00,
2013-06-19 22:22:00,69.3,58.3,28.97,South,180,0.0,0.0,68,0.00,,,0.00,WSDL version 420,2013-06-20 02:22:00,
2013-06-19 22:24:00,69.2,58.2,28.97,North,-999,-999.0,-999.0,68,0.00,,,0.00,WSDL version 420,2013-06-20 02:24:00,
2013-06-19 22:28:00,69.1,58.1,28.97,North,-999,-999.0,-999.0,68,0.00,,,0.00,WSDL version 420,2013-06-20 02:28:00,
2013-06-19 22:30:00,69.1,58.0,28.97,South,180,0.0,0.0,68,0.00,,,0.00,WSDL version 420,2013-06-20 02:30:00,
2013-06-19 22:32:00,69.0,58.0,28.97,North,0,0.0,0.0,68,0.00,,,0.00,WSDL version 420,2013-06-20 02:32:00,
2013-06-19 22:36:00,68.9,57.9,29.00,North,-999,-999.0,-999.0,68,0.00,,,0.00,WSDL version 420,2013-06-20 02:36:00,
2013-06-19 22:38:00,68.9,57.9,29.00,North,-999,-999.0,-999.0,68,0.00,,,0.00,WSDL version 420,2013-06-20 02:38:00,
2013-06-19 22:40:00,68.9,57.9,29.00,North,-999,-999.0,-999.0,68,0.00,,,0.00,WSDL version 420,2013-06-20 02:40:00,
2013-06-19 22:42:00,68.9,57.9,29.00,South,180,0.0,0.0,68,0.00,,,0.00,WSDL version 420,2013-06-20 02:42:00,
2013-06-19 22:44:00,68.9,58.0,29.00,North,0,0.0,0.0,69,0.00,,,0.00,WSDL version 420,2013-06-20 02:44:00,
2013-06-19 22:46:00,68.9,58.2,29.00,North,-999,-999.0,-999.0,69,0.00,,,0.00,WSDL version 420,2013-06-20 02:46:00,
2013-06-19 22:50:00,68.9,58.3,29.00,South,180,0.0,0.0,69,0.00,,,0.00,WSDL version 420,2013-06-20 02:50:00,
2013-06-19 22:52:00,68.9,58.3,29.00,North,0,0.0,0.0,69,0.00,,,0.00,WSDL version 420,2013-06-20 02:52:00,
2013-06-19 22:58:00,68.7,58.2,29.00,South,180,0.0,0.0,69,0.00,,,0.00,WSDL version 420,2013-06-20 02:58:00,
2013-06-19 23:00:00,68.7,58.2,29.00,South,180,0.0,0.0,69,0.00,,,0.00,WSDL version 420,2013-06-20 03:00:00,
2013-06-19 23:02:00,68.7,58.0,29.00,South,180,0.0,0.0,68,0.00,,,0.00,WSDL version 420,2013-06-20 03:02:00,
2013-06-19 23:04:00,68.7,57.9,29.00,South,180,0.0,0.0,68,0.00,,,0.00,WSDL version 420,2013-06-20 03:04:00,
2013-06-19 23:08:00,68.6,57.6,29.00,South,180,0.0,0.0,68,0.00,,,0.00,WSDL version 420,2013-06-20 03:08:00,
2013-06-19 23:10:00,68.5,57.7,29.00,North,-999,-999.0,-999.0,69,0.00,,,0.00,WSDL version 420,2013-06-20 03:10:00,
2013-06-19 23:14:00,68.4,57.8,29.00,North,0,0.0,0.0,69,0.00,,,0.00,WSDL version 420,2013-06-20 03:14:00,
2013-06-19 23:16:00,68.4,57.8,29.00,South,180,0.0,0.0,69,0.00,,,0.00,WSDL version 420,2013-06-20 03:16:00,
2013-06-19 23:18:00,68.4,57.8,29.00,South,180,0.0,0.0,69,0.00,,,0.00,WSDL version 420,2013-06-20 03:18:00,
2013-06-19 23:20:00,68.4,57.8,29.00,South,180,0.0,0.0,69,0.00,,,0.00,WSDL version 420,2013-06-20 03:20:00,
2013-06-19 23:24:00,68.4,57.8,29.00,North,-999,-999.0,-999.0,69,0.00,,,0.00,WSDL version 420,2013-06-20 03:24:00,
2013-06-19 23:28:00,68.4,57.8,29.00,North,-999,-999.0,-999.0,69,0.00,,,0.00,WSDL version 420,2013-06-20 03:28:00,
2013-06-19 23:30:00,68.4,57.8,29.00,South,180,0.0,0.0,69,0.00,,,0.00,WSDL version 420,2013-06-20 03:30:00,
2013-06-19 23:32:00,68.3,57.6,29.00,South,180,0.0,0.0,68,0.00,,,0.00,WSDL version 420,2013-06-20 03:32:00,
2013-06-19 23:36:00,68.1,57.4,29.00,North,-999,-999.0,-999.0,69,0.00,,,0.00,WSDL version 420,2013-06-20 03:36:00,
2013-06-19 23:38:00,68.0,57.5,29.00,North,-999,-999.0,-999.0,69,0.00,,,0.00,WSDL version 420,2013-06-20 03:38:00,
2013-06-19 23:42:00,67.9,57.3,29.00,South,180,0.0,0.0,69,0.00,,,0.00,WSDL version 420,2013-06-20 03:42:00,
2013-06-19 23:44:00,67.8,57.3,29.00,North,-999,-999.0,-999.0,69,0.00,,,0.00,WSDL version 420,2013-06-20 03:44:00,
2013-06-19 23:46:00,67.8,57.4,29.00,North,-999,-999.0,-999.0,70,0.00,,,0.00,WSDL version 420,2013-06-20 03:46:00,
2013-06-19 23:50:00,67.8,57.7,29.00,South,180,0.0,0.0,70,0.00,,,0.00,WSDL version 420,2013-06-20 03:50:00,
2013-06-19 23:52:00,67.8,57.7,29.00,South,180,0.0,0.0,70,0.00,,,0.00,WSDL version 420,2013-06-20 03:52:00,
2013-06-19 23:54:00,67.9,57.7,29.00,South,180,0.0,0.0,70,0.00,,,0.00,WSDL version 420,2013-06-20 03:54:00,
2013-06-19 23:56:00,67.9,57.7,29.00,North,-999,-999.0,-999.0,70,0.00,,,0.00,WSDL version 420,2013-06-20 03:56:00,